星链-33622 (STARLINK-33622)

导读

STARLINK-33622是由美国发射的一颗星链卫星,属于SpaceX星链互联网卫星星座中的一员,该卫星于2025年2月21日发射入轨。星链计划旨在通过近地轨道卫星群,提供覆盖全球的高速互联网接入服务,满足全球范围的互联网接入需求。

基本信息
目录编号:
63066
目录名称:
STARLINK-33622
国际标识:
2025-035Q
轨道中心:
EARTH
卫星名称:
星链-33622
卫星全名:
星链-33622 (STARLINK-33622)
卫星状态:
在轨 (已飞行567 天)
发射日期:
2025-02-21 UTC
国别 :
美国 (US)
星等 :
--
该卫星已列入 空间交会检测服务 Space Conjunction Data Service (SCDS) ,当前飞行风险评估等级: 无高风险
轨道信息
数据来源 国际轨道数据 AOE轨道数据
星历时间 2026-09-10T06:53:50+0800
1天前
查看轨道信息
2026-09-06T00:00:00+0800
5天前
查看轨道信息
半长轴 6861.166km 6861.203km
偏心率 0.0003129 0.0001147
轨道倾角 43.002° 42.998°
近地点辐角 267.555° 281.539°
升交点赤经 186.180° 210.395°
平近点角 92.494° 233.330°
近地点 480.882km 482.279km
远地点 485.176km 483.853km
周期 94.266分钟 94.267分钟
每日圈数 15.27587 15.275744
详细信息
固有亮度:
5
最大亮度:
2.5
卫星平台:
Starlink V1.0
覆盖范围:
全球
运营商:
太空探索技术公司
运营商所在国:
美国
制造商(研发单位):
太空探索技术公司
制造商所在国:
美国
使用方式:
暂无
卫星简介
Starlink 计划是 SpaceX 推出的全球卫星互联网项目,通过发射低轨道卫星,为全球尤其是偏远地区提供高速、低延迟的互联网服务。自 2019 年起,Starlink 已部署数千颗卫星,旨在缩小全球数字鸿沟,推动互联网普及。该项目还为军事、航空等行业提供通信支持,带来广泛经济效益。
2D轨道图
3D轨道图
轨道高度分析图
轨道倾角分析图
轨道综合分析图
查看轨道综合分析图
交会数据列表
事件ID 空间交会对象 最接近时刻(TCA) 交会距离 交会风险概率(CRP) 交会风险指数(CRI) 操作
CDM_260912-174806-306606-380321
2026-09-12T
17:48:47+0000
0.725 km
远距离
4.92027E-5 中风险 0.69
CDM_260912-192206-306606-380321
2026-09-12T
19:22:55+0000
0.749 km
远距离
4.451255E-5 中风险 0.68
CDM_260911-111206-306606-380321
2026-09-11T
11:12:52+0000
1.089 km
极远距离
1.267624E-5 中风险 0.57
CDM_260912-123605-875006-306621
2026-09-12T
12:36:44+0000
1.108 km
极远距离
1.033164E-5 中风险 0.55
CDM_260912-161406-306606-380321
2026-09-12T
16:14:38+0000
1.230 km
极远距离
8.322439E-6 低风险 0.53
CDM_260912-205706-306606-380321
2026-09-12T
20:57:04+0000
1.248 km
极远距离
7.898795E-6 低风险 0.53
CDM_260913-121906-306606-323122
M-SEL (63231)
2026-09-13T
12:19:43+0000
1.263 km
极远距离
7.287001E-6 低风险 0.52
CDM_260913-102305-852406-306621
2026-09-13T
10:23:06+0000
1.201 km
极远距离
5.678258E-6 低风险 0.5
CDM_260911-124706-306606-380321
2026-09-11T
12:47:01+0000
1.378 km
极远距离
5.657071E-6 低风险 0.5
CDM_260912-141905-823406-306621
2026-09-12T
14:19:44+0000
1.499 km
极远距离
5.059646E-6 低风险 0.49
与全量物体交会距离演化趋势
与全量物体交会风险概率演化趋势